Weather in Tolokontsevo

Russia / Omsk Oblast     56°27′10″N   71°12′35″E
temp.,
°C
wind,
m/s
gust,
m/s
humid.,
%
clouds,
%
prec.,
mm/h
press.,
hPa
HPBL,
m
9 may, sun
sun900:00+14e224360 0.0 101725
03:00+12e4105944 0.0 1017216
06:00+11e41163100 0.0 1018270
09:00+16e594416 0.0 1019536
12:00+20ene673343 0.0 10191090
15:00+21ene673236 0.0 10181702
18:00+19ene573087 0.0 10191724
21:00+15ene511405 0.0 1020630
10 may, mon
mon1000:00+11ene4124996 0.0 1021532
03:00+9ene41252100 0.0 1022414
06:00+8ene41157100 0.0 1023365
09:00+11e5945100 0.0 1025813
12:00+15ene573478 0.0 10251497
15:00+16ene5728100 0.0 10241683
18:00+17ene46280 0.0 10241893
21:00+12ene22440 0.0 102514
11 may, tue
tue1100:00+9ne22560 0.0 102625
03:00+8nne22600 0.0 102612
06:00+7nne23653 0.0 102753
09:00+14ne34470 0.0 1027618
12:00+17ne34320 0.0 10271462
15:00+20ne23250 0.0 10261601
18:00+20n2224100 0.0 10261639
21:00+14n1139100 0.0 102610
12 may, wed
wed1200:00+12ssw2241100 0.0 102612
03:00+11wsw2447100 0.0 102576
06:00+11wsw375392 0.0 1024140
09:00+17wnw464098 0.0 1024515
12:00+16nw466174 0.1 10241082
15:00+18nnw5638100 0.3 10231697
18:00+16n573999 0.3 10241763
21:00+11nne3651100 0.0 1025186
13 may, thu
thu1300:00+8nne116912 0.0 102510
03:00+6nne11771 0.0 102511
06:00+6n23810 0.0 102662
09:00+12n36400 0.0 1025805
12:00+16n35285 0.0 10251395
15:00+19nnw3427100 0.0 10231772
18:00+19nw353398 0.0 10231810
21:00+15wnw2254100 0.0 102332